Weather in Garrisberg

United States     40°16′21″N   76°51′57″W
temp.,
°C
wind,
m/s
gust,
m/s
humid.,
%
clouds,
%
prec.,
mm/h
press.,
hPa
HPBL,
m
12 may, wed
wed1223:00+7nw5115026 0.0 1022469
02:00+3nw3106729 0.0 1024289
05:00+2nw411755 0.0 1024313
08:00+5nw5117213 0.0 1026668
11:00+12n57595 0.0 10251262
14:00+16n464576 0.0 10232507
17:00+17nnw364889 0.0 10222630
20:00+12nw375967 0.0 1023120
13 may, thu
thu1323:00+8nnw34745 0.0 102553
02:00+5nw22810 0.0 102522
05:00+4nw22830 0.0 102631
08:00+8nw36670 0.0 1027217
11:00+14nnw45533 0.0 10261024
14:00+17nnw354193 0.0 10242652
17:00+17nw344871 0.0 10231886
20:00+11nne11727 0.1 102410
14 may, fri
fri1423:00+9wnw227642 0.0 102510
02:00+8nw117857 0.0 102511
05:00+8nnw228113 0.0 102518
08:00+10nw23760 0.0 1027167
11:00+16nnw23560 0.0 1026867
14:00+20ne02455 0.0 10252116
17:00+19s224642 0.0 10231767
20:00+14wsw226843 0.0 102411
15 may, sat
sat1523:00+10nw11775 0.0 102510
02:00+8nw11855 0.0 102510
05:00+7nw11894 0.0 102610
08:00+12nnw12771 0.0 1027138
11:00+18n11605 0.0 1026878
14:00+20se11525 0.8 10251737
17:00+18wnw436221 0.2 1024365
20:00+13nne22805 0.4 102436
16 may, sun
sun1623:00+9n118632 0.3 102610
02:00+9nw119110 0.3 102611
05:00+8nnw11915 0.0 102610
08:00+12nw11825 0.0 1027138
11:00+18nw0163100 0.0 1026709
14:00+20s2255100 0.2 10251423
17:00+20sw12549 0.4 10241390
20:00+15sse2276100 0.5 102426